• Em Portugal
  • Lista de países
  • Para 7 dias
  • Temperatura da água
  • Mapas de satélite
  • Mapa do tempo
  • Widgets de tempo
  • user-avatar
    Iniciar Sessão

    Previsão horária em Shumovo

    Hoje, 18 Julho, Quarta-feira

    Tempo Temperatura Precipitação Vento Pressão Humidade
    00:00 +19°C° 0 mm 3 m/s 735 mmHg 96%
    01:00 +19°C° 0 mm 3 m/s 735 mmHg 96%
    02:00 +18°C° 0 mm 2 m/s 734 mmHg 97%
    03:00 +18°C° 0 mm 2 m/s 734 mmHg 97%
    04:00 +19°C° 0 mm 3 m/s 734 mmHg 96%
    05:00 +19°C° 0 mm 4 m/s 734 mmHg 96%
    06:00 +20°C° 0 mm 4 m/s 734 mmHg 94%
    07:00 +21°C° 0 mm 5 m/s 734 mmHg 91%
    08:00 +21°C° 0 mm 5 m/s 734 mmHg 87%
    09:00 +22°C° 0,3 mm 6 m/s 734 mmHg 87%
    10:00 +22°C° 0,3 mm 6 m/s 734 mmHg 86%
    11:00 +22°C° 0,3 mm 6 m/s 734 mmHg 85%
    12:00 +22°C° 0,4 mm 6 m/s 734 mmHg 85%
    13:00 +23°C° 0,4 mm 6 m/s 733 mmHg 85%
    14:00 +23°C° 0,4 mm 6 m/s 733 mmHg 85%
    15:00 +23°C° 0,2 mm 6 m/s 733 mmHg 85%
    16:00 +23°C° 0,2 mm 5 m/s 733 mmHg 85%
    17:00 +23°C° 0,2 mm 5 m/s 733 mmHg 85%
    18:00 +22°C° 0,1 mm 4 m/s 733 mmHg 88%
    19:00 +21°C° 0,1 mm 4 m/s 733 mmHg 91%
    20:00 +20°C° 0,1 mm 3 m/s 733 mmHg 95%
    21:00 +20°C° 0 mm 3 m/s 733 mmHg 96%
    22:00 +19°C° 0 mm 3 m/s 733 mmHg 96%
    23:00 +19°C° 0 mm 3 m/s 733 mmHg 97%

    Amanhã, 19 Julho, Quinta-feira

    Tempo Temperatura Precipitação Vento Pressão Humidade
    00:00 +19°C° 0 mm 3 m/s 733 mmHg 97%
    01:00 +19°C° 0 mm 3 m/s 733 mmHg 97%
    02:00 +19°C° 0 mm 3 m/s 733 mmHg 97%
    03:00 +19°C° 0,2 mm 3 m/s 733 mmHg 97%
    04:00 +19°C° 0,2 mm 3 m/s 733 mmHg 97%
    05:00 +19°C° 0,2 mm 3 m/s 733 mmHg 97%
    06:00 +20°C° 0,3 mm 3 m/s 733 mmHg 96%
    07:00 +20°C° 0,3 mm 3 m/s 733 mmHg 95%
    08:00 +20°C° 0,3 mm 3 m/s 733 mmHg 94%
    09:00 +21°C° 0,4 mm 3 m/s 733 mmHg 91%
    10:00 +22°C° 0,4 mm 3 m/s 733 mmHg 88%
    11:00 +24°C° 0,4 mm 3 m/s 733 mmHg 85%
    12:00 +24°C° 1 mm 3 m/s 733 mmHg 84%
    13:00 +24°C° 1 mm 3 m/s 733 mmHg 83%
    14:00 +25°C° 1 mm 3 m/s 733 mmHg 82%
    15:00 +25°C° 0,6 mm 3 m/s 733 mmHg 82%
    16:00 +25°C° 0,6 mm 2 m/s 733 mmHg 82%
    17:00 +25°C° 0,6 mm 2 m/s 733 mmHg 83%
    18:00 +24°C° 0 mm 2 m/s 733 mmHg 86%
    19:00 +21°C° 0 mm 2 m/s 733 mmHg 90%
    20:00 +21°C° 0 mm 1 m/s 733 mmHg 94%
    21:00 +21°C° 0 mm 1 m/s 733 mmHg 95%
    22:00 +20°C° 0 mm 1 m/s 733 mmHg 95%
    23:00 +20°C° 0 mm 1 m/s 733 mmHg 96%

    Depois de amanhã, 20 Julho, Sexta-feira

    Tempo Temperatura Precipitação Vento Pressão Humidade
    00:00 +19°C° 0 mm 1 m/s 733 mmHg 96%
    01:00 +19°C° 0 mm 1 m/s 733 mmHg 97%
    02:00 +17°C° 0 mm 0 m/s 733 mmHg 97%
    03:00 +17°C° 0 mm 0 m/s 734 mmHg 97%
    04:00 +17°C° 0 mm 0 m/s 734 mmHg 97%
    05:00 +18°C° 0 mm 0 m/s 734 mmHg 97%
    06:00 +21°C° 0 mm 1 m/s 734 mmHg 93%
    07:00 +22°C° 0 mm 1 m/s 734 mmHg 90%
    08:00 +24°C° 0 mm 1 m/s 734 mmHg 86%
    09:00 +24°C° 0,2 mm 1 m/s 735 mmHg 83%
    10:00 +25°C° 0,2 mm 1 m/s 735 mmHg 79%
    11:00 +26°C° 0,2 mm 2 m/s 735 mmHg 76%
    12:00 +27°C° 0,6 mm 2 m/s 735 mmHg 75%
    13:00 +27°C° 0,6 mm 2 m/s 735 mmHg 73%
    14:00 +27°C° 0,6 mm 2 m/s 735 mmHg 72%
    15:00 +27°C° 0,4 mm 2 m/s 735 mmHg 74%
    16:00 +27°C° 0,4 mm 2 m/s 735 mmHg 76%
    17:00 +27°C° 0,4 mm 2 m/s 735 mmHg 78%
    18:00 +26°C° 0,1 mm 2 m/s 735 mmHg 83%
    19:00 +24°C° 0,1 mm 2 m/s 735 mmHg 87%
    20:00 +23°C° 0,1 mm 2 m/s 735 mmHg 91%
    21:00 +21°C° 0 mm 2 m/s 736 mmHg 92%
    22:00 +21°C° 0 mm 2 m/s 736 mmHg 93%
    23:00 +20°C° 0 mm 2 m/s 736 mmHg 94%

    21 Julho, Sábado

    Tempo Temperatura Precipitação Vento Pressão Humidade
    00:00 +20°C° 0 mm 2 m/s 736 mmHg 95%
    01:00 +20°C° 0 mm 2 m/s 736 mmHg 95%
    02:00 +19°C° 0 mm 2 m/s 736 mmHg 96%
    03:00 +20°C° 0 mm 2 m/s 736 mmHg 96%
    04:00 +21°C° 0 mm 1 m/s 736 mmHg 96%
    05:00 +21°C° 0 mm 1 m/s 736 mmHg 96%
    06:00 +21°C° 0 mm 2 m/s 736 mmHg 92%
    07:00 +24°C° 0 mm 2 m/s 736 mmHg 87%
    08:00 +25°C° 0 mm 2 m/s 736 mmHg 83%
    09:00 +26°C° 0,1 mm 2 m/s 737 mmHg 78%
    10:00 +27°C° 0,1 mm 2 m/s 737 mmHg 73%
    11:00 +28°C° 0,1 mm 2 m/s 737 mmHg 69%
    12:00 +28°C° 0,2 mm 2 m/s 736 mmHg 68%
    13:00 +28°C° 0,2 mm 3 m/s 736 mmHg 67%
    14:00 +29°C° 0,2 mm 3 m/s 736 mmHg 66%
    15:00 +29°C° 0,4 mm 3 m/s 736 mmHg 69%
    16:00 +28°C° 0,4 mm 3 m/s 736 mmHg 73%
    17:00 +28°C° 0,4 mm 2 m/s 736 mmHg 76%
    18:00 +26°C° 1 mm 2 m/s 736 mmHg 80%
    19:00 +25°C° 1 mm 2 m/s 736 mmHg 85%
    20:00 +23°C° 1 mm 2 m/s 736 mmHg 89%
    21:00 +23°C° 0,3 mm 2 m/s 736 mmHg 91%
    22:00 +21°C° 0,3 mm 2 m/s 736 mmHg 92%
    23:00 +20°C° 0,3 mm 2 m/s 736 mmHg 94%

    22 Julho, Domingo

    Tempo Temperatura Precipitação Vento Pressão Humidade
    00:00 +20°C° 0 mm 2 m/s 736 mmHg 95%
    01:00 +20°C° 0 mm 2 m/s 736 mmHg 96%
    02:00 +19°C° 0 mm 2 m/s 736 mmHg 96%
    03:00 +19°C° 0 mm 2 m/s 736 mmHg 96%
    04:00 +19°C° 0 mm 2 m/s 736 mmHg 97%
    05:00 +20°C° 0 mm 2 m/s 736 mmHg 97%
    06:00 +21°C° 0 mm 2 m/s 736 mmHg 94%
    07:00 +23°C° 0 mm 2 m/s 736 mmHg 90%
    08:00 +24°C° 0 mm 3 m/s 737 mmHg 87%
    09:00 +25°C° 0,2 mm 3 m/s 737 mmHg 83%
    10:00 +26°C° 0,2 mm 3 m/s 736 mmHg 79%
    11:00 +27°C° 0,2 mm 3 m/s 736 mmHg 75%
    12:00 +27°C° 0,5 mm 3 m/s 736 mmHg 74%
    13:00 +28°C° 0,5 mm 3 m/s 736 mmHg 74%
    14:00 +28°C° 0,5 mm 3 m/s 736 mmHg 73%
    15:00 +28°C° 0,5 mm 3 m/s 736 mmHg 74%
    16:00 +28°C° 0,5 mm 3 m/s 736 mmHg 75%
    17:00 +27°C° 0,5 mm 2 m/s 736 mmHg 77%
    18:00 +26°C° 0,3 mm 2 m/s 736 mmHg 81%
    19:00 +25°C° 0,3 mm 2 m/s 736 mmHg 86%
    20:00 +23°C° 0,3 mm 1 m/s 736 mmHg 90%
    21:00 +23°C° 0,1 mm 1 m/s 736 mmHg 91%
    22:00 +22°C° 0,1 mm 1 m/s 737 mmHg 93%
    23:00 +22°C° 0,1 mm 1 m/s 737 mmHg 94%

    23 Julho, Segunda-feira

    Tempo Temperatura Precipitação Vento Pressão Humidade
    00:00 +22°C° 0,2 mm 1 m/s 737 mmHg 95%
    01:00 +21°C° 0,2 mm 1 m/s 737 mmHg 96%
    02:00 +20°C° 0,2 mm 2 m/s 737 mmHg 96%
    03:00 +21°C° 0,1 mm 1 m/s 737 mmHg 97%
    04:00 +21°C° 0,1 mm 1 m/s 737 mmHg 97%
    05:00 +21°C° 0,1 mm 1 m/s 737 mmHg 97%
    06:00 +22°C° 0 mm 1 m/s 737 mmHg 94%
    07:00 +24°C° 0 mm 1 m/s 737 mmHg 90%
    08:00 +25°C° 0 mm 2 m/s 737 mmHg 87%
    09:00 +26°C° 0,9 mm 2 m/s 737 mmHg 83%
    10:00 +27°C° 0,9 mm 3 m/s 737 mmHg 80%
    11:00 +28°C° 0,9 mm 3 m/s 737 mmHg 76%
    12:00 +28°C° 1,2 mm 3 m/s 737 mmHg 74%
    13:00 +28°C° 1,2 mm 3 m/s 737 mmHg 73%
    14:00 +29°C° 1,2 mm 3 m/s 737 mmHg 71%
    15:00 +29°C° 0,2 mm 2 m/s 737 mmHg 71%
    16:00 +29°C° 0,2 mm 2 m/s 737 mmHg 71%
    17:00 +29°C° 0,2 mm 1 m/s 737 mmHg 72%
    18:00 +27°C° 0,2 mm 1 m/s 737 mmHg 76%
    19:00 +25°C° 0,2 mm 1 m/s 737 mmHg 81%
    20:00 +24°C° 0,2 mm 1 m/s 737 mmHg 86%
    21:00 +23°C° 0,5 mm 1 m/s 737 mmHg 88%
    22:00 +23°C° 0,5 mm 1 m/s 737 mmHg 90%
    23:00 +22°C° 0,5 mm 1 m/s 737 mmHg 92%
    Mostrar mais